| time (UTC) | temp F | wind direction | speed MPH | gust MPH | rain 1hr in | rain 24hr in | rain mn in | humidity % | barometer mb |
| 20260509005115 | 46 | 174 | 3.0 | 5.0 | 0.00 | 0.00 | 0.00 | 87 | 1029.7 |
| 20260509005015 | 46 | 180 | 3.0 | 4.0 | 0.00 | 0.00 | 0.00 | 87 | 1029.8 |
| 20260509004015 | 45 | 180 | 1.0 | 2.0 | 0.00 | 0.00 | 0.00 | 86 | 1029.8 |
| 20260509003113 | 45 | 180 | 0.0 | 1.0 | 0.00 | 0.00 | 0.00 | 85 | 1029.8 |
| 20260509002115 | 46 | 180 | 0.0 | 0.0 | 0.00 | 0.00 | 0.00 | 85 | 1029.8 |
| 20260509001116 | 46 | 135 | 1.0 | 2.0 | 0.00 | 0.00 | 0.00 | 84 | 1029.8 |
| 20260508235116 | 46 | 180 | 1.0 | 3.0 | 0.00 | 0.00 | 0.00 | 82 | 1029.7 |
| 20260508234115 | 47 | 90 | 0.0 | 0.0 | 0.00 | 0.00 | 0.00 | 82 | 1029.7 |
| 20260508233213 | 47 | 90 | 0.0 | 0.0 | 0.00 | 0.00 | 0.00 | 82 | 1029.8 |
| 20260508233115 | 47 | 90 | 0.0 | 0.0 | 0.00 | 0.00 | 0.00 | 82 | 1029.9 |
| 20260508232116 | 48 | 180 | 0.0 | 0.0 | 0.00 | 0.00 | 0.00 | 82 | 1029.8 |
| 20260508231115 | 48 | 172 | 1.0 | 2.0 | 0.00 | 0.00 | 0.00 | 80 | 1029.8 |
| 20260508230114 | 48 | 172 | 0.0 | 1.0 | 0.00 | 0.00 | 0.00 | 80 | 1029.9 |
| 20260508225214 | 49 | 180 | 0.0 | 0.0 | 0.00 | 0.00 | 0.00 | 79 | 1029.7 |
| 20260508223215 | 49 | 180 | 0.0 | 2.0 | 0.00 | 0.00 | 0.00 | 78 | 1029.9 |
| 20260508222314 | 50 | 124 | 2.0 | 3.0 | 0.00 | 0.00 | 0.00 | 78 | 1029.7 |
| 20260508220315 | 50 | 180 | 4.0 | 5.0 | 0.00 | 0.00 | 0.00 | 76 | 1029.8 |
| 20260508220215 | 50 | 169 | 3.0 | 5.0 | 0.00 | 0.00 | 0.00 | 76 | 1029.8 |
| 20260508215221 | 50 | 90 | 0.0 | 1.0 | 0.00 | 0.00 | 0.00 | 75 | 1029.8 |
| 20260508214222 | 51 | 137 | 2.0 | 3.0 | 0.00 | 0.00 | 0.00 | 75 | 1029.7 |
| 20260508211322 | 52 | 169 | 1.0 | 3.0 | 0.00 | 0.00 | 0.00 | 73 | 1030.0 |
| 20260508210324 | 52 | 158 | 2.0 | 4.0 | 0.00 | 0.00 | 0.00 | 72 | 1029.9 |
| 20260508205223 | 53 | 119 | 2.0 | 3.0 | 0.00 | 0.00 | 0.00 | 71 | 1029.7 |
| 20260508204321 | 53 | 90 | 1.0 | 2.0 | 0.00 | 0.00 | 0.00 | 71 | 1029.7 |
| 20260508203321 | 53 | 92 | 1.0 | 3.0 | 0.00 | 0.00 | 0.00 | 70 | 1029.7 |
| 20260508202322 | 53 | 106 | 0.0 | 2.0 | 0.00 | 0.00 | 0.00 | 70 | 1029.6 |
| 20260508201322 | 53 | 90 | 1.0 | 2.0 | 0.00 | 0.00 | 0.00 | 69 | 1029.6 |
| 20260508200322 | 53 | 90 | 0.0 | 1.0 | 0.00 | 0.00 | 0.00 | 67 | 1029.5 |
| 20260508195421 | 54 | 90 | 0.0 | 1.0 | 0.00 | 0.00 | 0.00 | 66 | 1029.5 |
| 20260508194423 | 54 | 172 | 2.0 | 3.0 | 0.00 | 0.00 | 0.00 | 65 | 1029.4 |
| 20260508193422 | 55 | 90 | 0.0 | 1.0 | 0.00 | 0.00 | 0.00 | 64 | 1029.4 |
| 20260508192423 | 55 | 180 | 1.0 | 2.0 | 0.00 | 0.00 | 0.00 | 62 | 1029.2 |
| 20260508190520 | 57 | 180 | 2.0 | 3.0 | 0.00 | 0.00 | 0.00 | 62 | 1029.0 |
| 20260508185523 | 57 | 180 | 1.0 | 2.0 | 0.00 | 0.00 | 0.00 | 62 | 1028.8 |
| 20260508184522 | 58 | 180 | 0.0 | 1.0 | 0.00 | 0.00 | 0.00 | 60 | 1028.7 |
| 20260508183523 | 59 | 180 | 0.0 | 2.0 | 0.00 | 0.00 | 0.00 | 56 | 1028.7 |
| 20260508182544 | 59 | 180 | 0.0 | 2.0 | 0.00 | 0.00 | 0.00 | 54 | 1028.6 |
| 20260508181622 | 60 | 180 | 0.0 | 0.0 | 0.00 | 0.00 | 0.00 | 52 | 1028.6 |
| 20260508180621 | 61 | 180 | 0.0 | 2.0 | 0.00 | 0.00 | 0.00 | 51 | 1028.4 |
| 20260508175624 | 61 | 176 | 1.0 | 3.0 | 0.00 | 0.00 | 0.00 | 51 | 1028.4 |
| 20260508174522 | 62 | 180 | 0.0 | 1.0 | 0.00 | 0.00 | 0.00 | 49 | 1028.2 |
| 20260508172521 | 63 | 180 | 0.0 | 1.0 | 0.00 | 0.00 | 0.00 | 48 | 1028.2 |
| 20260508171522 | 63 | 180 | 1.0 | 3.0 | 0.00 | 0.00 | 0.00 | 48 | 1028.1 |
| 20260508170522 | 63 | 180 | 0.0 | 3.0 | 0.00 | 0.00 | 0.00 | 49 | 1028.1 |
| 20260508170423 | 63 | 180 | 0.0 | 0.0 | 0.00 | 0.00 | 0.00 | 49 | 1028.0 |
| 20260508165421 | 64 | 180 | 0.0 | 1.0 | 0.00 | 0.00 | 0.00 | 47 | 1028.0 |
| 20260508164421 | 64 | 126 | 2.0 | 3.0 | 0.00 | 0.00 | 0.00 | 47 | 1028.1 |
| 20260508162421 | 64 | 180 | 1.0 | 2.0 | 0.00 | 0.00 | 0.00 | 47 | 1028.0 |
| 20260508161422 | 64 | 180 | 2.0 | 6.0 | 0.00 | 0.00 | 0.00 | 46 | 1028.1 |
| 20260508160422 | 65 | 115 | 1.0 | 2.0 | 0.00 | 0.00 | 0.00 | 45 | 1028.1 |
| 20260508155423 | 66 | 125 | 2.0 | 3.0 | 0.00 | 0.00 | 0.00 | 45 | 1028.2 |
| 20260508154422 | 67 | 180 | 0.0 | 0.0 | 0.00 | 0.00 | 0.00 | 45 | 1028.2 |
| 20260508153420 | 68 | 166 | 3.0 | 4.0 | 0.00 | 0.00 | 0.00 | 44 | 1028.2 |
| 20260508153321 | 68 | 180 | 4.0 | 5.0 | 0.00 | 0.00 | 0.00 | 43 | 1028.2 |
| 20260508151420 | 70 | 170 | 2.0 | 7.0 | 0.00 | 0.00 | 0.00 | 43 | 1028.2 |
| 20260508150421 | 69 | 180 | 1.0 | 4.0 | 0.00 | 0.00 | 0.00 | 46 | 1028.2 |
| 20260508145520 | 66 | 118 | 1.0 | 2.0 | 0.00 | 0.00 | 0.00 | 48 | 1028.3 |
| 20260508144522 | 64 | 114 | 1.0 | 2.0 | 0.00 | 0.00 | 0.00 | 50 | 1028.4 |
| 20260508142521 | 64 | 135 | 1.0 | 2.0 | 0.00 | 0.00 | 0.00 | 50 | 1028.4 |
| 20260508142421 | 64 | 135 | 1.0 | 3.0 | 0.00 | 0.00 | 0.00 | 50 | 1028.4 |
| 20260508141421 | 64 | 180 | 2.0 | 2.0 | 0.00 | 0.00 | 0.00 | 50 | 1028.5 |
| 20260508140422 | 65 | 151 | 3.0 | 4.0 | 0.00 | 0.00 | 0.00 | 51 | 1028.7 |
| 20260508140322 | 65 | 158 | 0.0 | 4.0 | 0.00 | 0.00 | 0.00 | 51 | 1028.5 |
| 20260508135322 | 65 | 135 | 1.0 | 2.0 | 0.00 | 0.00 | 0.00 | 49 | 1028.7 |
| 20260508133345 | 66 | 143 | 3.0 | 5.0 | 0.00 | 0.00 | 0.00 | 48 | 1028.7 |
| 20260508131420 | 67 | 110 | 0.0 | 1.0 | 0.00 | 0.00 | 0.00 | 51 | 1028.7 |
| 20260508130421 | 66 | 135 | 1.0 | 3.0 | 0.00 | 0.00 | 0.00 | 52 | 1028.6 |
| 20260508124521 | 68 | 140 | 1.0 | 2.0 | 0.00 | 0.00 | 0.00 | 49 | 1028.7 |
| 20260508123620 | 70 | 180 | 3.0 | 5.0 | 0.00 | 0.00 | 0.00 | 50 | 1028.8 |
| 20260508123520 | 70 | 180 | 5.0 | 8.0 | 0.00 | 0.00 | 0.00 | 50 | 1028.7 |
| 20260508120521 | 68 | 121 | 1.0 | 4.0 | 0.00 | 0.00 | 0.00 | 58 | 1029.0 |
| 20260508115521 | 67 | 159 | 2.0 | 4.0 | 0.00 | 0.00 | 0.00 | 57 | 1028.9 |
| 20260508115423 | 67 | 141 | 3.0 | 4.0 | 0.00 | 0.00 | 0.00 | 57 | 1028.9 |
| 20260508115323 | 67 | 116 | 4.0 | 7.0 | 0.00 | 0.00 | 0.00 | 57 | 1029.0 |
| 20260508114324 | 66 | 113 | 1.0 | 2.0 | 0.00 | 0.00 | 0.00 | 61 | 1029.0 |
| 20260508113422 | 66 | 151 | 3.0 | 4.0 | 0.00 | 0.00 | 0.00 | 62 | 1029.0 |
| 20260508112519 | 65 | 104 | 2.0 | 3.0 | 0.00 | 0.00 | 0.00 | 65 | 1029.2 |
| 20260508111522 | 63 | 119 | 2.0 | 3.0 | 0.00 | 0.00 | 0.00 | 65 | 1029.3 |
| 20260508110521 | 62 | 115 | 3.0 | 6.0 | 0.00 | 0.00 | 0.00 | 65 | 1029.4 |
| 20260508105422 | 60 | 129 | 3.0 | 6.0 | 0.00 | 0.00 | 0.00 | 71 | 1029.4 |
| 20260508104322 | 58 | 180 | 0.0 | 2.0 | 0.00 | 0.00 | 0.00 | 72 | 1029.4 |
| 20260508102421 | 57 | 133 | 0.0 | 1.0 | 0.00 | 0.00 | 0.00 | 74 | 1029.4 |
| 20260508102321 | 57 | 180 | 3.0 | 4.0 | 0.00 | 0.00 | 0.00 | 74 | 1029.5 |
| 20260508102221 | 57 | 180 | 5.0 | 6.0 | 0.00 | 0.00 | 0.00 | 74 | 1029.4 |
| 20260508100320 | 57 | 164 | 3.0 | 7.0 | 0.00 | 0.00 | 0.00 | 79 | 1029.6 |
| 20260508100243 | 57 | 126 | 5.0 | 7.0 | 0.00 | 0.00 | 0.00 | 80 | 1029.5 |
| 20260508095321 | 57 | 180 | 4.0 | 6.0 | 0.00 | 0.00 | 0.00 | 82 | 1029.6 |
| 20260508094320 | 56 | 133 | 6.0 | 8.0 | 0.00 | 0.00 | 0.00 | 83 | 1029.6 |
| 20260508094221 | 56 | 166 | 3.0 | 7.0 | 0.00 | 0.00 | 0.00 | 84 | 1029.5 |
| 20260508093320 | 55 | 174 | 3.0 | 5.0 | 0.00 | 0.00 | 0.00 | 85 | 1029.6 |
| 20260508092321 | 55 | 180 | 3.0 | 5.0 | 0.00 | 0.00 | 0.00 | 86 | 1029.7 |
| 20260508092223 | 55 | 144 | 5.0 | 7.0 | 0.00 | 0.00 | 0.00 | 86 | 1029.7 |
| 20260508091320 | 54 | 129 | 3.0 | 4.0 | 0.00 | 0.00 | 0.00 | 87 | 1029.7 |
| 20260508090321 | 53 | 180 | 4.0 | 6.0 | 0.00 | 0.00 | 0.00 | 87 | 1029.7 |
| 20260508090222 | 53 | 166 | 4.0 | 5.0 | 0.00 | 0.00 | 0.00 | 87 | 1029.7 |
| 20260508085223 | 53 | 96 | 4.0 | 7.0 | 0.00 | 0.00 | 0.00 | 88 | 1029.7 |
| 20260508084237 | 53 | 180 | 6.0 | 8.0 | 0.00 | 0.00 | 0.00 | 89 | 1029.7 |
| 20260508082222 | 52 | 92 | 2.0 | 4.0 | 0.00 | 0.00 | 0.00 | 90 | 1029.5 |
| 20260508080221 | 51 | 122 | 0.0 | 1.0 | 0.00 | 0.00 | 0.00 | 92 | 1029.6 |
| 20260508075321 | 50 | 176 | 5.0 | 7.0 | 0.00 | 0.00 | 0.00 | 93 | 1029.6 |
| 20260508073321 | 49 | 161 | 0.0 | 2.0 | 0.00 | 0.00 | 0.00 | 93 | 1029.5 |
| 20260508073222 | 49 | 178 | 3.0 | 5.0 | 0.00 | 0.00 | 0.00 | 94 | 1029.5 |
| 20260508072221 | 48 | 180 | 2.0 | 3.0 | 0.00 | 0.00 | 0.00 | 94 | 1029.5 |
| 20260508071223 | 48 | 151 | 3.0 | 4.0 | 0.00 | 0.00 | 0.00 | 94 | 1029.4 |
| 20260508070320 | 48 | 172 | 1.0 | 2.0 | 0.00 | 0.00 | 0.00 | 94 | 1029.3 |
| 20260508065321 | 47 | 109 | 4.0 | 5.0 | 0.00 | 0.00 | 0.00 | 94 | 1029.2 |
| 20260508064320 | 47 | 166 | 2.0 | 3.0 | 0.00 | 0.00 | 0.00 | 94 | 1029.1 |
| 20260508063323 | 47 | 129 | 2.0 | 4.0 | 0.00 | 0.00 | 0.00 | 94 | 1028.9 |
| 20260508060321 | 46 | 148 | 1.0 | 4.0 | 0.00 | 0.00 | 0.00 | 93 | 1028.7 |
| 20260508060223 | 46 | 138 | 2.0 | 5.0 | 0.00 | 0.00 | 0.00 | 93 | 1028.7 |
| 20260508055321 | 46 | 135 | 1.0 | 3.0 | 0.00 | 0.00 | 0.00 | 93 | 1028.8 |
| 20260508054322 | 46 | 154 | 0.0 | 2.0 | 0.00 | 0.00 | 0.00 | 93 | 1028.8 |
| 20260508052321 | 45 | 135 | 0.0 | 1.0 | 0.00 | 0.00 | 0.00 | 93 | 1028.7 |
| 20260508051420 | 45 | 157 | 0.0 | 1.0 | 0.00 | 0.00 | 0.00 | 93 | 1028.6 |
| 20260508051323 | 45 | 98 | 0.0 | 2.0 | 0.00 | 0.00 | 0.00 | 93 | 1028.4 |
| 20260508050323 | 45 | 174 | 3.0 | 5.0 | 0.00 | 0.00 | 0.00 | 93 | 1028.5 |
| 20260508045420 | 45 | 180 | 1.0 | 3.0 | 0.00 | 0.00 | 0.00 | 92 | 1028.3 |
| 20260508044423 | 45 | 105 | 1.0 | 3.0 | 0.00 | 0.00 | 0.00 | 92 | 1028.3 |
| 20260508043421 | 45 | 106 | 2.0 | 4.0 | 0.00 | 0.00 | 0.00 | 92 | 1028.4 |
| 20260508043321 | 45 | 132 | 0.0 | 3.0 | 0.00 | 0.00 | 0.00 | 92 | 1028.4 |
| 20260508042419 | 45 | 90 | 1.0 | 2.0 | 0.00 | 0.00 | 0.00 | 92 | 1028.3 |
| 20260508041422 | 45 | 137 | 3.0 | 5.0 | 0.00 | 0.00 | 0.00 | 92 | 1028.3 |
| 20260508041321 | 45 | 119 | 3.0 | 4.0 | 0.00 | 0.00 | 0.00 | 92 | 1028.2 |
| 20260508040321 | 45 | 164 | 2.0 | 4.0 | 0.00 | 0.00 | 0.00 | 92 | 1028.2 |
| 20260508035321 | 46 | 180 | 1.0 | 3.0 | 0.00 | 0.00 | 0.00 | 92 | 1028.2 |
| 20260508035221 | 46 | 137 | 2.0 | 4.0 | 0.00 | 0.00 | 0.00 | 92 | 1028.2 |
| 20260508034222 | 46 | 174 | 2.0 | 4.0 | 0.00 | 0.00 | 0.00 | 92 | 1028.3 |
| 20260508033221 | 46 | 96 | 5.0 | 6.0 | 0.00 | 0.00 | 0.00 | 91 | 1028.2 |
| 20260508033121 | 46 | 126 | 4.0 | 6.0 | 0.00 | 0.00 | 0.00 | 91 | 1028.1 |
| 20260508033022 | 46 | 144 | 5.0 | 7.0 | 0.00 | 0.00 | 0.00 | 91 | 1028.2 |
| 20260508032020 | 46 | 112 | 3.0 | 6.0 | 0.00 | 0.00 | 0.00 | 91 | 1028.3 |
| 20260508031119 | 46 | 158 | 2.0 | 3.0 | 0.00 | 0.00 | 0.00 | 90 | 1028.2 |
| 20260508031022 | 46 | 180 | 3.0 | 5.0 | 0.00 | 0.00 | 0.00 | 90 | 1028.2 |
| 20260508025023 | 46 | 106 | 0.0 | 2.0 | 0.00 | 0.00 | 0.00 | 90 | 1028.2 |
| 20260508024021 | 46 | 135 | 0.0 | 2.0 | 0.00 | 0.00 | 0.00 | 89 | 1028.2 |
| 20260508023022 | 46 | 172 | 2.0 | 5.0 | 0.00 | 0.00 | 0.00 | 89 | 1028.2 |
| 20260508022022 | 46 | 164 | 3.0 | 7.0 | 0.00 | 0.00 | 0.00 | 89 | 1028.1 |
| 20260508021022 | 46 | 96 | 1.0 | 4.0 | 0.00 | 0.00 | 0.00 | 88 | 1028.3 |
| 20260508020021 | 47 | 126 | 2.0 | 4.0 | 0.00 | 0.00 | 0.00 | 88 | 1028.3 |
| 20260508015020 | 47 | 126 | 1.0 | 3.0 | 0.00 | 0.00 | 0.00 | 88 | 1028.3 |
| 20260508013920 | 47 | 180 | 3.0 | 5.0 | 0.00 | 0.00 | 0.00 | 88 | 1028.1 |
| 20260508012820 | 47 | 90 | 1.0 | 2.0 | 0.00 | 0.00 | 0.00 | 87 | 1028.3 |
| 20260508010919 | 48 | 90 | 0.0 | 3.0 | 0.00 | 0.00 | 0.00 | 86 | 1028.3 |
| 20260508010820 | 48 | 114 | 2.0 | 5.0 | 0.00 | 0.00 | 0.00 | 86 | 1028.2 |
| 20260508005919 | 48 | 152 | 0.0 | 3.0 | 0.00 | 0.00 | 0.00 | 86 | 1028.2 |